Find Starlink 30459

NORAD ID: 57927 Int'l Des: 2023-147 Owner: SPXS Country: US Constellation: starlink decayed
LEOCIRCULAR

Re-entered — 15. Jan. 2026

3D-Globus wird geladen...

About Starlink 30459

Starlink 30459 (NORAD 57927) is a starlink constellation satellite (v2 mini) launched Sep 24, 2023 by SPXS of US. It re-entered the atmosphere on Jan 15, 2026. with a mass of 730.00 kg.

Über Starlink 30459

Beschreibung wird geladen...

Höhenverlauf

Loading altitude history...

Zweizeiliger Elementsatz

1 57927U 23147Q 26015.56131009 .20033368 91102-5 27197-2 0 9997
2 57927 42.9718 68.0229 0008223 123.3118 236.8561 16.34177119130773
Epoch: 15. Jan. 2026 • Age: 3612 hours

Aktueller Status

Position data unavailable
Startdatum 24. Sept. 2023
Alter 2.7 years
Verglühungsdatum 15. Jan. 2026
Typ internet

Technische Details

Klassifizierung Payload
Masse 730.00 kg
Trockenmasse 700.00 kg
Gesamtmasse 730.00 kg
Länge 0.30 m
Durchmesser 4.10 m
Spannweite 29.00 m
Form Box + pan
Hersteller SPXS
Bus-Typ Starlink V2M
Phasenstatus Unknown Transfer Status
Besitzer/Staat SPXS/US

Most Searched